This is the latest recevied weather packets stored in our database for station/object N4MGC. If no packets are shown the sender has not sent any weather packets the latest 10 day(s).
| Time | Temp. | Humidity | Pressure | Rain* | Wind** | Luminosity | Snow |
|---|---|---|---|---|---|---|---|
| 1777240137 | 26.67° C | 64% | 1011.6 hPa | 0 mm | - | 175 W/m² | - |
| 1777239835 | 26.67° C | 63% | 1011.4 hPa | 0 mm | - | 163 W/m² | - |
| 1777239531 | 26.67° C | 63% | 1011.4 hPa | 0 mm | - | 146 W/m² | - |
| 1777239228 | 27.22° C | 61% | 1011.4 hPa | 0 mm | - | 151 W/m² | - |
| 1777238925 | 27.22° C | 58% | 1011.5 hPa | 0 mm | - | 166 W/m² | - |
| 1777238622 | 27.22° C | 63% | 1011.3 hPa | 0 mm | - | 244 W/m² | - |
| 1777238319 | 27.22° C | 62% | 1011.5 hPa | 0 mm | - | 300 W/m² | - |
| 1777238015 | 26.67° C | 56% | 1011.5 hPa | 0 mm | - | 156 W/m² | - |
| 1777237712 | 27.22° C | 60% | 1011.4 hPa | 0 mm | - | 137 W/m² | - |
| 1777237409 | 27.78° C | 57% | 1011.4 hPa | 0 mm | - | 138 W/m² | - |
| 1777237106 | 27.78° C | 56% | 1011.7 hPa | 0 mm | - | 372 W/m² | - |
| 1777236805 | 27.78° C | 58% | 1011.2 hPa | 0 mm | - | 406 W/m² | - |
| 1777236504 | 27.78° C | 59% | 1011.4 hPa | 0 mm | - | 269 W/m² | - |
| 1777236201 | 28.33° C | 57% | 1011.4 hPa | 0 mm | - | 244 W/m² | - |
| 1777235896 | 28.89° C | 57% | 1011.4 hPa | 0 mm | - | 301 W/m² | - |
| 1777235593 | 28.89° C | 55% | 1011.4 hPa | 0 mm | - | 502 W/m² | - |
| 1777235289 | 28.33° C | 54% | 1011.6 hPa | 0 mm | - | 353 W/m² | - |
| 1777234986 | 28.33° C | 54% | 1011.7 hPa | 0 mm | - | 281 W/m² | - |
| 1777234682 | 28.33° C | 53% | 1011.7 hPa | 0 mm | - | 524 W/m² | - |
| 1777234377 | 28.33° C | 54% | 1011.6 hPa | 0 mm | - | 442 W/m² | - |
| 1777234073 | 28.89° C | 56% | 1011.6 hPa | 0 mm | - | 604 W/m² | - |
| 1777233769 | 28.33° C | 58% | 1011.4 hPa | 0 mm | - | 556 W/m² | - |
| 1777233465 | 28.33° C | 56% | 1011.8 hPa | 0 mm | - | 498 W/m² | - |
| 1777233165 | 27.78° C | 57% | 1011.7 hPa | 0 mm | - | 294 W/m² | - |
| 1777232860 | 27.78° C | 59% | 1011.6 hPa | 0 mm | - | 425 W/m² | - |
* Rain latest hour (hover to see other rain measurements)
** Current wind speed in m/s (hover to see current wind gust speed)